WN4MDN Weather Reports


Display with metric or nautical units.
time (UTC)temp
F
wind
direction
speed
MPH
gust
MPH
rain 1hr
in
rain 24hr
in
rain mn
in
humidity
%
barometer
mb
20260510093046 67 0 0.0 0.0 0.00 0.00 0.00 93 1014.2
20260510092535 67 0 0.0 0.0 0.00 0.00 0.00 93 1014.2
20260510092035 67 0 0.0 2.0 0.00 0.00 0.00 93 1014.2
20260510091544 68 0 0.0 2.0 0.00 0.00 0.00 93 1014.1
20260510091034 67 138 0.0 2.0 0.00 0.00 0.00 93 1014.1
20260510090532 68 0 0.0 0.0 0.00 0.00 0.00 93 1014.1
20260510090050 68 0 0.0 2.0 0.00 0.00 0.00 93 1014.1
20260510085538 68 0 0.0 2.0 0.00 0.00 0.00 93 1014.1
20260510085035 68 138 1.0 2.0 0.00 0.00 0.00 93 1014.1
20260510084549 68 138 0.0 2.0 0.00 0.00 0.00 93 1014.1
20260510084035 68 138 0.0 2.0 0.00 0.00 0.00 92 1014.1
20260510083536 68 0 0.0 0.0 0.00 0.00 0.00 92 1014.1
20260510083046 68 0 0.0 0.0 0.00 0.00 0.00 93 1014.1
20260510082535 68 0 0.0 5.0 0.00 0.00 0.00 93 1014.1
20260510082037 69 0 0.0 5.0 0.00 0.00 0.00 93 1014.1
20260510081552 68 149 1.0 4.0 0.00 0.00 0.00 93 1014.2
20260510081037 68 142 1.0 4.0 0.00 0.00 0.00 93 1014.1
20260510080534 68 163 2.0 5.0 0.00 0.00 0.00 92 1014.2
20260510080054 69 178 2.0 5.0 0.00 0.00 0.00 92 1014.2
20260510075536 69 140 2.0 3.0 0.00 0.00 0.00 92 1014.2
20260510075035 69 130 1.0 3.0 0.00 0.00 0.00 92 1014.0
20260510074553 69 159 0.0 3.0 0.00 0.00 0.00 92 1014.0
20260510074035 69 159 1.0 3.0 0.00 0.00 0.00 92 1013.9
20260510073532 69 158 1.0 3.0 0.00 0.00 0.00 92 1014.0
20260510073112 69 0 0.0 4.0 0.00 0.00 0.00 92 1013.9
20260510072536 69 232 2.0 4.0 0.00 0.00 0.00 92 1013.9
20260510072035 69 242 2.0 3.0 0.00 0.00 0.00 92 1013.9
20260510071549 69 242 1.0 2.0 0.00 0.00 0.00 92 1014.0
20260510071035 69 0 0.0 0.0 0.00 0.00 0.00 92 1014.0
20260510070535 69 0 0.0 2.0 0.00 0.00 0.00 91 1014.0
20260510070053 69 0 0.0 2.0 0.00 0.00 0.00 91 1014.0
20260510065535 69 0 1.0 2.0 0.00 0.00 0.00 91 1014.0
20260510065034 69 0 0.0 3.0 0.00 0.00 0.00 91 1014.1
20260510064609 69 0 0.0 4.0 0.00 0.00 0.00 91 1014.2
20260510064034 69 230 2.0 4.0 0.00 0.00 0.00 91 1014.2
20260510063535 69 261 2.0 4.0 0.00 0.00 0.00 91 1014.2
20260510063045 69 271 2.0 4.0 0.00 0.00 0.00 90 1014.2
20260510062535 70 126 0.0 2.0 0.00 0.00 0.00 90 1014.3
20260510062036 70 0 0.0 2.0 0.00 0.00 0.00 90 1014.3
20260510061545 70 126 0.0 3.0 0.00 0.00 0.00 90 1014.3
20260510061037 70 0 0.0 3.0 0.00 0.00 0.00 90 1014.3
20260510060539 70 126 1.0 3.0 0.00 0.00 0.00 90 1014.3
20260510060051 70 126 0.0 2.0 0.00 0.00 0.00 90 1014.4
20260510055537 70 0 1.0 2.0 0.00 0.00 0.00 90 1014.4
20260510055039 70 126 1.0 2.0 0.00 0.00 0.00 90 1014.5
20260510054549 70 0 0.0 2.0 0.00 0.00 0.00 89 1014.4
20260510054035 70 0 0.0 2.0 0.00 0.00 0.00 89 1014.5
20260510053536 70 360 1.0 3.0 0.00 0.00 0.00 89 1014.6
20260510053048 71 360 1.0 3.0 0.00 0.00 0.00 89 1014.6
20260510052538 71 360 0.0 2.0 0.00 0.00 0.00 88 1014.7
20260510052035 71 0 0.0 0.0 0.00 0.00 0.00 88 1014.9
20260510051552 71 0 0.0 0.0 0.00 0.00 0.00 88 1014.8
20260510051038 72 0 0.0 0.0 0.00 0.00 0.00 88 1014.9
20260510050534 72 0 0.0 0.0 0.00 0.00 0.00 88 1014.9
20260510050051 72 0 0.0 0.0 0.00 0.00 0.00 88 1015.0
20260510045539 72 0 0.0 0.0 0.00 0.00 0.00 87 1015.1
20260510045034 72 0 0.0 1.0 0.00 0.00 0.00 87 1015.0
20260510044546 72 0 0.0 2.0 0.00 0.00 0.00 87 1015.1
20260510044034 72 360 1.0 2.0 0.00 0.00 0.00 87 1015.0
20260510043535 72 0 0.0 0.0 0.00 0.00 0.00 87 1015.0
20260510043044 72 0 0.0 1.0 0.00 0.00 0.00 87 1015.1
20260510042537 72 0 0.0 2.0 0.00 0.00 0.00 87 1015.1
20260510042036 73 0 0.0 2.0 0.00 0.00 0.00 87 1015.1
20260510041546 73 15 1.0 2.0 0.00 0.00 0.00 87 1015.1
20260510041035 73 262 0.0 2.0 0.00 0.00 0.00 86 1015.1
20260510040535 73 0 0.0 2.0 0.00 0.00 0.00 86 1014.9
20260510040050 73 262 1.0 2.0 0.00 0.00 0.00 86 1014.9
20260510035534 73 270 1.0 2.0 0.00 0.00 0.00 86 1014.9
20260510035038 73 0 0.0 0.0 0.00 0.00 0.00 86 1014.9
20260510034607 74 0 0.0 2.0 0.00 0.00 0.00 85 1014.9
20260510034035 74 0 0.0 3.0 0.00 0.00 0.00 85 1015.0
20260510033538 74 292 1.0 3.0 0.00 0.00 0.00 85 1015.0
20260510033050 74 292 2.0 3.0 0.00 0.00 0.00 84 1015.0
20260510032536 74 292 2.0 3.0 0.00 0.00 0.00 84 1015.0
20260510032035 75 120 0.0 4.0 0.00 0.00 0.00 84 1015.0
20260510031546 75 120 0.0 4.0 0.00 0.00 0.00 84 1014.8
20260510031034 75 109 2.0 4.0 0.00 0.00 0.00 84 1014.7
20260510030536 75 284 0.0 3.0 0.00 0.00 0.00 84 1014.7
20260510030050 75 0 0.0 4.0 0.00 0.00 0.00 84 1014.6
20260510025536 75 283 2.0 4.0 0.00 0.00 0.00 84 1014.6
20260510025036 75 275 2.0 4.0 0.00 0.00 0.00 84 1014.6
20260510024545 76 276 3.0 4.0 0.00 0.00 0.00 83 1014.6
20260510024037 76 280 1.0 3.0 0.00 0.00 0.00 83 1014.6
20260510023535 76 0 0.0 0.0 0.00 0.00 0.00 82 1014.6
20260510023046 76 0 0.0 4.0 0.00 0.00 0.00 82 1014.6
20260510022535 77 0 1.0 5.0 0.00 0.00 0.00 82 1014.5
20260510022035 77 26 2.0 5.0 0.00 0.00 0.00 81 1014.3
20260510021555 77 15 2.0 5.0 0.00 0.00 0.00 81 1014.2
20260510021035 77 10 1.0 5.0 0.00 0.00 0.00 80 1014.1
20260510020535 78 13 3.0 5.0 0.00 0.00 0.00 80 1013.9
20260510020049 78 5 2.0 4.0 0.00 0.00 0.00 79 1013.8
20260510015537 78 20 2.0 6.0 0.00 0.00 0.00 78 1013.6
20260510015034 78 302 3.0 6.0 0.00 0.00 0.00 78 1013.4
20260510014600 78 349 3.0 6.0 0.00 0.00 0.00 78 1013.3
20260510014034 79 31 4.0 8.0 0.00 0.00 0.00 77 1013.3
20260510013533 79 63 3.0 8.0 0.00 0.00 0.00 77 1013.4
20260510013055 79 74 2.0 7.0 0.00 0.00 0.00 76 1013.4
20260510012536 79 103 3.0 7.0 0.00 0.00 0.00 76 1013.3
20260510012034 79 83 3.0 9.0 0.00 0.00 0.00 76 1013.2
20260510011549 79 40 3.0 10.0 0.00 0.00 0.00 75 1013.1
20260510011035 79 23 5.0 10.0 0.00 0.00 0.00 75 1013.1
20260510010534 80 351 5.0 10.0 0.00 0.00 0.00 74 1013.0
20260510010048 80 15 2.0 8.0 0.00 0.00 0.00 74 1012.9
20260510005535 80 355 4.0 11.0 0.00 0.00 0.00 73 1012.8
20260510005036 80 299 5.0 12.0 0.00 0.00 0.00 73 1012.7
20260510004546 81 258 7.0 15.0 0.00 0.00 0.00 72 1012.7
20260510004035 82 267 10.0 15.0 0.00 0.00 0.00 70 1012.7
20260510003535 83 225 10.0 15.0 0.00 0.00 0.00 68 1012.4
20260510003101 83 239 4.0 10.0 0.00 0.00 0.00 66 1012.2
20260510002536 83 0 0.0 2.0 0.00 0.00 0.00 64 1011.9
20260510002034 84 0 0.0 1.0 0.00 0.00 0.00 64 1011.9
20260510001553 84 0 0.0 1.0 0.00 0.00 0.00 63 1011.7
20260510001035 84 0 0.0 1.0 0.00 0.00 0.00 63 1011.5
20260510000537 84 0 0.0 2.0 0.00 0.00 0.00 62 1011.3
20260510000114 84 170 0.0 2.0 0.00 0.00 0.00 62 1011.3
20260509235535 85 170 0.0 3.0 0.00 0.00 0.00 61 1011.3
20260509235036 85 170 1.0 4.0 0.00 0.00 0.00 61 1011.3
20260509234542 85 0 1.0 4.0 0.00 0.00 0.00 60 1011.3
20260509234035 86 150 1.0 3.0 0.00 0.00 0.00 59 1011.3
20260509233534 86 138 1.0 4.0 0.00 0.00 0.00 58 1011.1
20260509233047 87 145 2.0 5.0 0.00 0.00 0.00 57 1011.1
20260509232532 87 130 2.0 5.0 0.00 0.00 0.00 56 1011.0
20260509232032 88 103 2.0 5.0 0.00 0.00 0.00 55 1011.0
20260509231546 88 166 3.0 8.0 0.00 0.00 0.00 54 1011.0
20260509231035 89 157 3.0 8.0 0.00 0.00 0.00 54 1011.0
20260509230535 89 131 5.0 8.0 0.00 0.00 0.00 53 1010.9
20260509230049 89 145 4.0 8.0 0.00 0.00 0.00 53 1011.1
20260509225535 89 156 3.0 8.0 0.00 0.00 0.00 52 1011.1
20260509225033 90 162 4.0 8.0 0.00 0.00 0.00 52 1011.1
20260509224544 90 142 5.0 9.0 0.00 0.00 0.00 51 1011.1
20260509224035 90 112 4.0 10.0 0.00 0.00 0.00 52 1011.0
20260509223535 90 130 6.0 11.0 0.00 0.00 0.00 50 1011.0
20260509223045 90 140 5.0 11.0 0.00 0.00 0.00 50 1011.0
20260509222534 90 150 6.0 11.0 0.00 0.00 0.00 50 1011.0
20260509222037 90 155 6.0 12.0 0.00 0.00 0.00 50 1010.9
20260509221546 90 172 7.0 12.0 0.00 0.00 0.00 49 1011.0
20260509221035 90 141 7.0 12.0 0.00 0.00 0.00 49 1010.9
20260509220533 91 137 6.0 12.0 0.00 0.00 0.00 49 1011.0
20260509220046 91 134 6.0 12.0 0.00 0.00 0.00 49 1010.9
20260509215533 91 147 6.0 11.0 0.00 0.00 0.00 48 1010.9
20260509215036 91 152 5.0 12.0 0.00 0.00 0.00 49 1010.9
20260509214600 92 162 7.0 12.0 0.00 0.00 0.00 48 1010.9
20260509214035 92 151 5.0 11.0 0.00 0.00 0.00 48 1010.9
20260509213535 91 140 6.0 12.0 0.00 0.00 0.00 49 1011.0
20260509213046 91 123 7.0 12.0 0.00 0.00 0.00 48 1010.9
20260509212538 91 135 6.0 12.0 0.00 0.00 0.00 49 1011.0
20260509212034 92 121 6.0 12.0 0.00 0.00 0.00 49 1011.0
20260509211548 91 153 6.0 14.0 0.00 0.00 0.00 49 1010.9
20260509211035 92 155 6.0 14.0 0.00 0.00 0.00 47 1011.0
20260509210536 91 173 8.0 15.0 0.00 0.00 0.00 49 1011.0
20260509210048 91 157 7.0 15.0 0.00 0.00 0.00 49 1011.0
20260509205537 91 155 7.0 14.0 0.00 0.00 0.00 48 1011.1
20260509205035 91 143 7.0 14.0 0.00 0.00 0.00 48 1011.0
20260509204543 91 132 7.0 14.0 0.00 0.00 0.00 47 1011.1
20260509204035 91 167 8.0 14.0 0.00 0.00 0.00 45 1011.1
20260509203534 91 153 6.0 12.0 0.00 0.00 0.00 46 1011.2
20260509203046 91 116 7.0 13.0 0.00 0.00 0.00 45 1011.1
20260509202538 92 144 6.0 14.0 0.00 0.00 0.00 45 1011.3
20260509202033 91 159 7.0 14.0 0.00 0.00 0.00 43 1011.3
20260509201546 92 146 6.0 14.0 0.00 0.00 0.00 46 1011.3
20260509201033 91 172 7.0 14.0 0.00 0.00 0.00 44 1011.4
20260509200534 91 149 7.0 15.0 0.00 0.00 0.00 44 1011.4
20260509200049 92 165 6.0 15.0 0.00 0.00 0.00 44 1011.5
20260509195535 91 149 9.0 15.0 0.00 0.00 0.00 45 1011.7
20260509195034 91 161 7.0 17.0 0.00 0.00 0.00 44 1011.8
20260509194552 91 171 9.0 17.0 0.00 0.00 0.00 43 1012.0
20260509194038 91 144 8.0 18.0 0.00 0.00 0.00 46 1012.0
20260509193534 91 181 11.0 19.0 0.00 0.00 0.00 44 1012.0
20260509193044 91 149 10.0 19.0 0.00 0.00 0.00 48 1012.0
20260509192537 91 164 9.0 16.0 0.00 0.00 0.00 48 1012.0
20260509192034 91 160 8.0 18.0 0.00 0.00 0.00 50 1012.0
20260509191543 90 155 10.0 18.0 0.00 0.00 0.00 50 1012.1
20260509191038 91 165 9.0 16.0 0.00 0.00 0.00 50 1012.3
20260509190535 90 178 8.0 22.0 0.00 0.00 0.00 51 1012.2
20260509190045 90 124 11.0 22.0 0.00 0.00 0.00 52 1012.3
20260509185535 90 175 12.0 20.0 0.00 0.00 0.00 51 1012.4
20260509185033 90 150 10.0 21.0 0.00 0.00 0.00 49 1012.4
20260509184545 90 184 10.0 21.0 0.00 0.00 0.00 49 1012.6
20260509184034 90 159 8.0 18.0 0.00 0.00 0.00 50 1012.5
20260509183534 90 171 9.0 19.0 0.00 0.00 0.00 51 1012.5
20260509183100 90 161 10.0 19.0 0.00 0.00 0.00 49 1012.5
20260509182534 90 148 9.0 20.0 0.00 0.00 0.00 49 1012.5
20260509182032 89 165 12.0 20.0 0.00 0.00 0.00 49 1012.6
20260509181549 90 132 9.0 20.0 0.00 0.00 0.00 45 1012.7
20260509181032 90 155 11.0 20.0 0.00 0.00 0.00 47 1012.7
20260509180533 90 178 9.0 18.0 0.00 0.00 0.00 48 1012.8
20260509180048 89 178 10.0 18.0 0.00 0.00 0.00 46 1012.7
20260509175535 90 172 9.0 19.0 0.00 0.00 0.00 48 1012.8
20260509175033 89 161 10.0 19.0 0.00 0.00 0.00 48 1012.9
20260509174551 89 184 10.0 20.0 0.00 0.00 0.00 48 1012.9
20260509174034 89 225 10.0 20.0 0.00 0.00 0.00 47 1012.9
20260509173533 89 163 11.0 20.0 0.00 0.00 0.00 48 1012.9
20260509173057 89 153 7.0 20.0 0.00 0.00 0.00 51 1013.0
20260509172535 89 175 8.0 17.0 0.00 0.00 0.00 53 1012.9
20260509172036 88 159 9.0 21.0 0.00 0.00 0.00 50 1013.1
20260509171545 88 146 9.0 21.0 0.00 0.00 0.00 51 1013.1
20260509171035 88 164 8.0 18.0 0.00 0.00 0.00 52 1013.2
20260509170534 88 177 10.0 21.0 0.00 0.00 0.00 54 1013.3
20260509170049 88 142 9.0 21.0 0.00 0.00 0.00 54 1013.3
20260509165535 88 171 10.0 20.0 0.00 0.00 0.00 54 1013.3
20260509165034 88 159 10.0 19.0 0.00 0.00 0.00 53 1013.4
20260509164546 88 161 9.0 17.0 0.00 0.00 0.00 54 1013.5
20260509164033 88 183 7.0 17.0 0.00 0.00 0.00 56 1013.6
20260509163535 88 186 8.0 17.0 0.00 0.00 0.00 54 1013.6
20260509163051 88 165 7.0 17.0 0.00 0.00 0.00 55 1013.7
20260509162535 88 159 9.0 17.0 0.00 0.00 0.00 54 1013.7
20260509162036 87 150 7.0 17.0 0.00 0.00 0.00 56 1013.8
20260509161550 87 144 9.0 16.0 0.00 0.00 0.00 55 1013.9
20260509161034 87 164 10.0 16.0 0.00 0.00 0.00 58 1014.1
20260509160534 87 171 5.0 17.0 0.00 0.00 0.00 60 1014.1
20260509160054 86 186 10.0 17.0 0.00 0.00 0.00 58 1014.1
20260509155534 86 152 7.0 19.0 0.00 0.00 0.00 60 1014.2
20260509155034 86 145 9.0 19.0 0.00 0.00 0.00 58 1014.5
20260509154551 86 190 5.0 16.0 0.00 0.00 0.00 61 1014.5
20260509154035 86 202 4.0 16.0 0.00 0.00 0.00 63 1014.5
20260509153533 85 150 8.0 18.0 0.00 0.00 0.00 60 1014.5
20260509153054 85 165 9.0 18.0 0.00 0.00 0.00 62 1014.4
20260509152534 85 164 11.0 16.0 0.00 0.00 0.00 61 1014.5
20260509152034 85 205 9.0 16.0 0.00 0.00 0.00 63 1014.5
20260509151553 85 207 10.0 16.0 0.00 0.00 0.00 61 1014.6
20260509151035 85 185 9.0 15.0 0.00 0.00 0.00 64 1014.6
20260509150536 84 175 9.0 16.0 0.00 0.00 0.00 64 1014.6
20260509150045 84 179 9.0 16.0 0.00 0.00 0.00 64 1014.6
20260509145534 84 189 7.0 14.0 0.00 0.00 0.00 66 1014.6
20260509145037 84 178 8.0 15.0 0.00 0.00 0.00 67 1014.6
20260509144550 84 144 7.0 17.0 0.00 0.00 0.00 66 1014.6
20260509144034 84 150 10.0 17.0 0.00 0.00 0.00 67 1014.7
20260509143535 84 142 6.0 12.0 0.00 0.00 0.00 70 1014.6
20260509143055 83 158 7.0 12.0 0.00 0.00 0.00 70 1014.6
20260509142535 83 166 6.0 13.0 0.00 0.00 0.00 71 1014.5
20260509142036 83 141 6.0 15.0 0.00 0.00 0.00 71 1014.5
20260509141552 83 173 7.0 15.0 0.00 0.00 0.00 70 1014.5
20260509141034 82 151 4.0 14.0 0.00 0.00 0.00 71 1014.5
20260509140533 82 159 6.0 13.0 0.00 0.00 0.00 74 1014.5
20260509140058 81 155 5.0 13.0 0.00 0.00 0.00 75 1014.5
20260509135536 81 170 5.0 11.0 0.00 0.00 0.00 77 1014.7
20260509135038 80 166 4.0 9.0 0.00 0.00 0.00 79 1014.6
20260509134542 79 171 5.0 9.0 0.00 0.00 0.00 80 1014.6
20260509134035 79 197 5.0 9.0 0.00 0.00 0.00 82 1014.6
20260509133535 78 165 5.0 9.0 0.00 0.00 0.00 84 1014.6
20260509133045 78 125 4.0 9.0 0.00 0.00 0.00 85 1014.5
20260509132535 77 123 3.0 9.0 0.00 0.00 0.00 86 1014.6
20260509132034 77 196 3.0 9.0 0.00 0.00 0.00 88 1014.5
20260509131542 77 175 4.0 9.0 0.00 0.00 0.00 90 1014.6
20260509131034 76 175 1.0 5.0 0.00 0.00 0.00 92 1014.5
20260509130534 76 180 0.0 6.0 0.00 0.00 0.00 93 1014.4
20260509130044 75 130 2.0 6.0 0.00 0.00 0.00 94 1014.3
20260509125533 75 118 0.0 4.0 0.00 0.00 0.00 94 1014.4
20260509125035 74 196 0.0 5.0 0.00 0.00 0.00 94 1014.3
20260509124548 74 240 0.0 5.0 0.00 0.00 0.00 95 1014.3
20260509124035 73 142 2.0 5.0 0.00 0.00 0.00 95 1014.3
20260509123535 73 162 2.0 5.0 0.00 0.00 0.00 95 1014.2
20260509123056 72 173 2.0 5.0 0.00 0.00 0.00 95 1014.1
20260509122534 72 123 2.0 4.0 0.00 0.00 0.00 95 1014.0
20260509122034 72 118 2.0 4.0 0.00 0.00 0.00 95 1014.0
20260509121543 72 155 1.0 5.0 0.00 0.00 0.00 95 1013.8
20260509121035 71 155 1.0 5.0 0.00 0.00 0.00 95 1013.9
20260509120533 71 180 0.0 1.0 0.00 0.00 0.00 95 1013.9
20260509120045 71 0 0.0 0.0 0.00 0.00 0.00 95 1014.0
20260509115535 71 0 0.0 1.0 0.00 0.00 0.00 95 1013.9
20260509115034 70 0 0.0 1.0 0.00 0.00 0.00 95 1013.8
20260509114550 70 0 0.0 1.0 0.00 0.00 0.00 95 1013.8
20260509114056 70 0 0.0 0.0 0.00 0.00 0.00 95 1013.6
20260509113537 69 0 0.0 0.0 0.00 0.00 0.00 95 1013.5
20260509113047 68 0 0.0 0.0 0.00 0.00 0.00 95 1013.5
20260509112534 67 0 0.0 0.0 0.00 0.00 0.00 94 1013.5
20260509112035 67 0 0.0 0.0 0.00 0.00 0.00 94 1013.5
20260509111546 67 0 0.0 0.0 0.00 0.00 0.00 95 1013.4
20260509111035 67 0 0.0 0.0 0.00 0.00 0.00 94 1013.5
20260509110534 67 0 0.0 0.0 0.00 0.00 0.00 94 1013.5
20260509110045 67 0 0.0 0.0 0.00 0.00 0.00 94 1013.5
20260509105534 66 0 0.0 0.0 0.00 0.00 0.00 94 1013.5
20260509105035 67 0 0.0 0.0 0.00 0.00 0.00 94 1013.4
20260509104543 67 0 0.0 0.0 0.00 0.00 0.00 94 1013.6
20260509104037 67 0 0.0 0.0 0.00 0.00 0.00 94 1013.6
20260509103534 67 0 0.0 3.0 0.00 0.00 0.00 93 1013.5
20260509103050 67 0 0.0 4.0 0.00 0.00 0.00 94 1013.4
20260509102534 67 304 2.0 4.0 0.00 0.00 0.00 93 1013.5
20260509102035 68 126 1.0 2.0 0.00 0.00 0.00 94 1013.3
20260509101551 68 126 1.0 2.0 0.00 0.00 0.00 94 1013.3
20260509101037 68 0 0.0 0.0 0.00 0.00 0.00 94 1013.2
20260509100534 68 0 0.0 0.0 0.00 0.00 0.00 94 1013.2
20260509100049 68 0 0.0 1.0 0.00 0.00 0.00 94 1013.2
20260509095534 68 0 0.0 1.0 0.00 0.00 0.00 94 1013.2
20260509095036 68 0 0.0 2.0 0.00 0.00 0.00 94 1013.1
20260509094548 68 0 0.0 3.0 0.00 0.00 0.00 94 1013.2
20260509094033 69 0 0.0 3.0 0.00 0.00 0.00 94 1013.2
20260509093534 68 5 0.0 0.0 0.00 0.00 0.00 94 1013.3